Flag for U.S.A. Weather past 2 weeks in Furnace Creek (Death Valley), California, U.S.A.

Now
53 °F

Clear.


Feels Like: 52 °F
Forecast: 67 / 97 °F
Wind: 5 mph from Northeast

Location: Desert Rock Airport

Current Time: Oct 24, 2014 at 5:21:18 AM

Latest Report: Oct 24, 2014 at 4:52 AM


Visibility: 10 mi

Pressure: 29.98 "Hg

Humidity: 39%

Dew point: 29 °F

Location of Furnace Creek (Death Valley)Location

Historic Weather in Furnace Creek (Death Valley) — Graph

°F

Furnace Creek (Death Valley) temperature yesterday

Maximum temperature yesterday: 84 °F (at 2:52 PM)
Minimum temperature yesterday: 50 °F (at 6:52 AM)
Average temperature yesterday: 65 °F

Past Weeks' High & Low Weather Summary

 TemperatureHumidityPressure
High85 °F (Oct 11, 2:52 PM)52% (Oct 9, 7:52 AM)30.13 "Hg (Oct 9, 7:52 AM)
Low47 °F (Oct 17, 6:52 AM)5% (Oct 12, 4:52 PM)29.72 "Hg (Oct 21, 3:52 AM)
Average68 °F22%29.88 "Hg
* Reported Oct 9 3:52 AM — Oct 24 3:52 AM, Furnace Creek (Death Valley), Weather by CustomWeather, © 2014

Note: Actual official high and low records may vary slightly from our data, if they occured in-between our weather recording intervals... More about our weather records

Advertising

Furnace Creek (Death Valley) weather history for previous 24 hours

 ConditionsComfort  
Time TempWeatherWind HumidityBarometerVisibility
3:52 AM
Oct 24
52 °FClear.6 mph41%29.97 "Hg10 mi
2:52 AM55 °FClear.3 mph37%29.97 "Hg10 mi
1:52 AM57 °FClear.6 mph36%29.98 "Hg10 mi
12:52 AM57 °FClear.No wind36%29.98 "Hg10 mi
11:52 PM
Oct 23
59 °FClear.8 mph33%29.97 "Hg10 mi
10:52 PM60 °FClear.6 mph31%29.97 "Hg10 mi
9:52 PM61 °FClear.No wind29%29.97 "Hg10 mi
8:52 PM67 °FClear.5 mph25%29.96 "Hg10 mi
7:52 PM67 °FClear.7 mph24%29.96 "Hg10 mi
6:52 PM73 °FSunny.12 mph19%29.94 "Hg10 mi
5:52 PM77 °FSunny.7 mph16%29.93 "Hg10 mi
4:52 PM81 °FSunny.7 mph13%29.91 "Hg10 mi
3:52 PM81 °FSunny.6 mph13%29.91 "Hg10 mi
2:52 PM84 °FSunny.16 mph11%29.92 "Hg10 mi
1:52 PM81 °FSunny.3 mph13%29.94 "Hg10 mi
12:52 PM79 °FSunny.No wind14%29.98 "Hg10 mi
11:52 AM76 °FSunny.No wind14%30.01 "Hg10 mi
10:52 AM72 °FSunny.3 mph16%30.03 "Hg10 mi
9:52 AM68 °FSunny.3 mph17%30.03 "Hg10 mi
8:52 AM60 °FSunny.5 mph22%30.05 "Hg10 mi
7:52 AM54 °FClear.6 mph29%30.03 "Hg10 mi
6:52 AM50 °FClear.6 mph32%30.01 "Hg10 mi
5:52 AM51 °FClear.3 mph31%29.98 "Hg10 mi
Weather by CustomWeather, © 2014

See weather overviewHow to use our weather pages